COA1527 KSLC-KLAX

Flight info

Callsign COA1527
Flight time 1h 20m
Altitude 36000
Route ARCHZ1 WINEN LAKRR Q73 HAKMN ANJLL4
Aircraft MD83/M-SDFGIRWY/S

Departure

Time 2026-05-07 01:32
Airport Salt Lake City International Airport (KSLC)

Arrival

Time 2026-05-07 02:52
Airport Los Angeles International Airport (KLAX)
Time Latitude Longitude Altitude Speed Heading
2026-05-07 01:16 40.78813 -111.98891 4232 ft 0 kts
2026-05-07 01:20 40.78812 -111.98891 4232 ft 2 kts
2026-05-07 01:21 40.78787 -111.98893 4232 ft 4 kts 359°
2026-05-07 01:21 40.78764 -111.98898 4232 ft 3 kts 22°
2026-05-07 01:21 40.78746 -111.98913 4232 ft 4 kts 64°
2026-05-07 01:21 40.78743 -111.98944 4232 ft 4 kts 90°
2026-05-07 01:22 40.78742 -111.98962 4232 ft 1 kts 84°
2026-05-07 01:22 40.78742 -111.98964 4232 ft 0 kts 84°
2026-05-07 01:24 40.78743 -111.98950 4232 ft 5 kts 84°
2026-05-07 01:24 40.78749 -111.98871 4232 ft 10 kts 84°
2026-05-07 01:25 40.78756 -111.98777 4232 ft 11 kts 85°
2026-05-07 01:25 40.78762 -111.98679 4232 ft 11 kts 85°
2026-05-07 01:25 40.78770 -111.98575 4232 ft 12 kts 84°
2026-05-07 01:25 40.78777 -111.98474 4232 ft 12 kts 84°
2026-05-07 01:26 40.78785 -111.98362 4232 ft 12 kts 84°
2026-05-07 01:26 40.78793 -111.98247 4231 ft 13 kts 84°
2026-05-07 01:26 40.78802 -111.98128 4231 ft 13 kts 84°
2026-05-07 01:26 40.78811 -111.98006 4231 ft 14 kts 84°
2026-05-07 01:27 40.78822 -111.97882 4232 ft 14 kts 77°
2026-05-07 01:27 40.78835 -111.97755 4232 ft 14 kts 88°
2026-05-07 01:27 40.78777 -111.97684 4232 ft 13 kts 174°
2026-05-07 01:27 40.78687 -111.97674 4232 ft 13 kts 175°
2026-05-07 01:28 40.78595 -111.97664 4232 ft 13 kts 175°
2026-05-07 01:28 40.78501 -111.97653 4231 ft 14 kts 175°
2026-05-07 01:28 40.78402 -111.97641 4231 ft 14 kts 175°
2026-05-07 01:28 40.78303 -111.97629 4231 ft 14 kts 175°
2026-05-07 01:29 40.78202 -111.97618 4231 ft 15 kts 175°
2026-05-07 01:29 40.78102 -111.97606 4231 ft 15 kts 175°
2026-05-07 01:29 40.77999 -111.97594 4260 ft 15 kts 175°
2026-05-07 01:29 40.77902 -111.97555 4260 ft 15 kts 152°
2026-05-07 01:30 40.77803 -111.97522 4259 ft 15 kts 174°
2026-05-07 01:30 40.77702 -111.97510 4259 ft 15 kts 175°
2026-05-07 01:30 40.77600 -111.97498 4259 ft 15 kts 175°
2026-05-07 01:30 40.77496 -111.97486 4259 ft 15 kts 175°
2026-05-07 01:31 40.77449 -111.97411 4259 ft 12 kts 78°
2026-05-07 01:31 40.77497 -111.97333 4259 ft 8 kts 32°
2026-05-07 01:31 40.77547 -111.97325 4259 ft 0 kts 356°
2026-05-07 01:31 40.77553 -111.97325 4259 ft 9 kts 356°
2026-05-07 01:32 40.77823 -111.97357 4259 ft 73 kts 355°
2026-05-07 01:32 40.78557 -111.97443 4231 ft 136 kts 354°
2026-05-07 01:32 40.79677 -111.97570 4317 ft 181 kts 353°
2026-05-07 01:32 40.80942 -111.97696 5165 ft 180 kts 354°
2026-05-07 01:33 40.82225 -111.97891 5742 ft 194 kts 351°
2026-05-07 01:33 40.83617 -111.98150 6182 ft 211 kts 351°
2026-05-07 01:33 40.85123 -111.98496 6512 ft 229 kts 339°
2026-05-07 01:33 40.86415 -111.99843 6654 ft 254 kts 297°
2026-05-07 01:34 40.86739 -112.02197 6914 ft 276 kts 259°
2026-05-07 01:34 40.86024 -112.04555 7640 ft 281 kts 241°
2026-05-07 01:34 40.85011 -112.06820 8273 ft 289 kts 241°
2026-05-07 01:34 40.83932 -112.09114 8902 ft 297 kts 240°
2026-05-07 01:35 40.82828 -112.11386 9723 ft 299 kts 239°
2026-05-07 01:35 40.81658 -112.13750 10249 ft 312 kts 240°
2026-05-07 01:35 40.80451 -112.16208 10447 ft 334 kts 241°
2026-05-07 01:35 40.79175 -112.18879 10616 ft 354 kts 241°
2026-05-07 01:36 40.77851 -112.21721 10819 ft 372 kts 242°
2026-05-07 01:36 40.76455 -112.24625 11419 ft 378 kts 235°
2026-05-07 01:36 40.74484 -112.26975 12100 ft 389 kts 213°
2026-05-07 01:36 40.71954 -112.28285 12796 ft 396 kts 194°
2026-05-07 01:37 40.69221 -112.28913 13441 ft 403 kts 189°
2026-05-07 01:37 40.66423 -112.29399 14120 ft 407 kts 188°
2026-05-07 01:37 40.63597 -112.29856 14768 ft 411 kts 188°
2026-05-07 01:37 40.60738 -112.30319 15355 ft 416 kts 188°
2026-05-07 01:38 40.57849 -112.30819 15954 ft 422 kts 189°
2026-05-07 01:38 40.54953 -112.31526 16571 ft 425 kts 196°
2026-05-07 01:38 40.52110 -112.32626 17163 ft 428 kts 200°
2026-05-07 01:38 40.49258 -112.33869 17696 ft 434 kts 201°
2026-05-07 01:39 40.46381 -112.35142 18318 ft 439 kts 200°
2026-05-07 01:39 40.43470 -112.36416 18867 ft 442 kts 200°
2026-05-07 01:39 40.40535 -112.37671 19424 ft 446 kts 200°
2026-05-07 01:39 40.37557 -112.38915 19906 ft 451 kts 199°
2026-05-07 01:40 40.34551 -112.40149 20497 ft 453 kts 199°
2026-05-07 01:40 40.31530 -112.41376 20973 ft 457 kts 199°
2026-05-07 01:40 40.28471 -112.42614 21476 ft 462 kts 199°
2026-05-07 01:40 40.25393 -112.43857 21977 ft 465 kts 199°
2026-05-07 01:41 40.22285 -112.45114 22495 ft 469 kts 199°
2026-05-07 01:41 40.19161 -112.46385 22980 ft 472 kts 200°
2026-05-07 01:41 40.16127 -112.48044 23466 ft 474 kts 209°
2026-05-07 01:41 40.13214 -112.50075 23898 ft 477 kts 212°
2026-05-07 01:42 40.10317 -112.52212 24349 ft 479 kts 212°
2026-05-07 01:42 40.07412 -112.54354 24812 ft 481 kts 212°
2026-05-07 01:42 40.04479 -112.56490 25239 ft 485 kts 211°
2026-05-07 01:42 40.01509 -112.58614 25656 ft 488 kts 211°
2026-05-07 01:43 39.98517 -112.60724 26112 ft 490 kts 211°
2026-05-07 01:43 39.95503 -112.62835 26524 ft 494 kts 211°
2026-05-07 01:43 39.92465 -112.64950 26936 ft 497 kts 211°
2026-05-07 01:43 39.89413 -112.67072 27375 ft 498 kts 210°
2026-05-07 01:44 39.86358 -112.69193 27956 ft 496 kts 211°
2026-05-07 01:44 39.83323 -112.71301 28592 ft 493 kts 211°
2026-05-07 01:44 39.80348 -112.73371 29160 ft 491 kts 211°
2026-05-07 01:44 39.77338 -112.75465 29703 ft 490 kts 211°
2026-05-07 01:45 39.74331 -112.77555 30180 ft 490 kts 211°
2026-05-07 01:45 39.71329 -112.79642 30629 ft 488 kts 211°
2026-05-07 01:45 39.68338 -112.81692 31162 ft 485 kts 208°
2026-05-07 01:45 39.65195 -112.83304 31614 ft 486 kts 200°
2026-05-07 01:46 39.61957 -112.84581 32025 ft 487 kts 198°
2026-05-07 01:46 39.58701 -112.85770 32410 ft 486 kts 198°
2026-05-07 01:46 39.55443 -112.86963 32813 ft 485 kts 198°
2026-05-07 01:46 39.52207 -112.88179 33232 ft 484 kts 199°
2026-05-07 01:47 39.48992 -112.89424 33669 ft 482 kts 199°
2026-05-07 01:47 39.45793 -112.90693 34076 ft 480 kts 200°
2026-05-07 01:47 39.42605 -112.91976 34386 ft 479 kts 200°
2026-05-07 01:47 39.39425 -112.93259 34676 ft 478 kts 200°
2026-05-07 01:48 39.36252 -112.94535 34967 ft 478 kts 200°
2026-05-07 01:48 39.33076 -112.95804 35250 ft 477 kts 200°
2026-05-07 01:48 39.29906 -112.97063 35561 ft 476 kts 200°
2026-05-07 01:48 39.26744 -112.98315 35830 ft 476 kts 200°
2026-05-07 01:49 39.23568 -112.99568 35952 ft 479 kts 199°
2026-05-07 01:49 39.17175 -113.02091 36048 ft 480 kts 199°
2026-05-07 01:50 39.10803 -113.04596 36072 ft 477 kts 199°
2026-05-07 01:50 39.04471 -113.07085 36079 ft 475 kts 199°
2026-05-07 01:51 38.98140 -113.09573 36067 ft 476 kts 199°
2026-05-07 01:51 38.91798 -113.12067 36074 ft 477 kts 199°
2026-05-07 01:52 38.85444 -113.14548 36080 ft 477 kts 199°
2026-05-07 01:52 38.79148 -113.16990 36082 ft 475 kts 199°
2026-05-07 01:53 38.72836 -113.19447 36079 ft 475 kts 199°
2026-05-07 01:53 38.66503 -113.21913 36108 ft 476 kts 198°
2026-05-07 01:54 38.60149 -113.24377 36121 ft 478 kts 198°
2026-05-07 01:54 38.53797 -113.26838 36122 ft 476 kts 198°
2026-05-07 01:55 38.47470 -113.29280 36133 ft 475 kts 198°
2026-05-07 01:55 38.41139 -113.31716 36127 ft 476 kts 198°
2026-05-07 01:56 38.34783 -113.34158 36113 ft 477 kts 198°
2026-05-07 01:56 38.28414 -113.36604 36091 ft 478 kts 198°
2026-05-07 01:57 38.22043 -113.39051 36068 ft 478 kts 198°
2026-05-07 01:57 38.15684 -113.41486 36066 ft 477 kts 198°
2026-05-07 01:58 38.09342 -113.43911 36056 ft 476 kts 198°
2026-05-07 01:58 38.03046 -113.46332 36051 ft 477 kts 198°
2026-05-07 01:59 37.96687 -113.48772 36062 ft 478 kts 198°
2026-05-07 01:59 37.90323 -113.51261 36056 ft 479 kts 199°
2026-05-07 02:00 37.84024 -113.53993 36053 ft 478 kts 201°
2026-05-07 02:00 37.77758 -113.56781 36051 ft 476 kts 200°
2026-05-07 02:01 37.71506 -113.59522 36051 ft 475 kts 200°
2026-05-07 02:01 37.65248 -113.62230 36033 ft 476 kts 200°
2026-05-07 02:02 37.58979 -113.64936 36040 ft 476 kts 200°
2026-05-07 02:02 37.52694 -113.67650 36029 ft 479 kts 200°
2026-05-07 02:03 37.46373 -113.70371 36011 ft 481 kts 199°
2026-05-07 02:03 37.40037 -113.73093 36019 ft 481 kts 200°
2026-05-07 02:04 37.33701 -113.75814 35978 ft 481 kts 200°
2026-05-07 02:04 37.27385 -113.78528 35974 ft 478 kts 199°
2026-05-07 02:05 37.21113 -113.81215 35985 ft 476 kts 199°
2026-05-07 02:05 37.14833 -113.83893 35979 ft 477 kts 199°
2026-05-07 02:06 37.08539 -113.86571 35967 ft 477 kts 198°
2026-05-07 02:06 37.02261 -113.89254 35959 ft 475 kts 199°
2026-05-07 02:07 36.96007 -113.91916 35944 ft 474 kts 198°
2026-05-07 02:07 36.86656 -113.95869 35931 ft 476 kts 199°
2026-05-07 02:08 36.80387 -113.98526 35936 ft 476 kts 198°
2026-05-07 02:08 36.75126 -114.00754 35912 ft 477 kts 198°
2026-05-07 02:09 36.68838 -114.03397 35905 ft 477 kts 198°
2026-05-07 02:09 36.62546 -114.06038 35902 ft 477 kts 198°
2026-05-07 02:10 36.56253 -114.08698 35892 ft 478 kts 198°
2026-05-07 02:10 36.49960 -114.11327 35900 ft 477 kts 198°
2026-05-07 02:11 36.43666 -114.13958 35885 ft 478 kts 198°
2026-05-07 02:11 36.37363 -114.16601 35884 ft 478 kts 198°
2026-05-07 02:12 36.31115 -114.19223 35880 ft 476 kts 198°
2026-05-07 02:12 36.24807 -114.21875 35884 ft 476 kts 198°
2026-05-07 02:13 36.18561 -114.24461 35889 ft 477 kts 198°
2026-05-07 02:13 36.12279 -114.27067 35878 ft 476 kts 198°
2026-05-07 02:14 36.09217 -114.28600 35892 ft 476 kts 211°
2026-05-07 02:14 36.06577 -114.31042 35894 ft 475 kts 226°
2026-05-07 02:14 36.02148 -114.37121 35880 ft 477 kts 231°
2026-05-07 02:15 35.97859 -114.43368 35873 ft 476 kts 231°
2026-05-07 02:15 35.93520 -114.49503 35897 ft 473 kts 230°
2026-05-07 02:16 35.89126 -114.55546 35914 ft 474 kts 229°
2026-05-07 02:16 35.84710 -114.61592 35871 ft 475 kts 230°
2026-05-07 02:17 35.80298 -114.67649 35940 ft 475 kts 230°
2026-05-07 02:17 35.75871 -114.73714 35940 ft 476 kts 229°
2026-05-07 02:18 35.71439 -114.79765 35982 ft 475 kts 229°
2026-05-07 02:18 35.67024 -114.85812 35982 ft 475 kts 229°
2026-05-07 02:19 35.62660 -114.91784 35981 ft 474 kts 229°
2026-05-07 02:19 35.58244 -114.97792 35979 ft 474 kts 229°
2026-05-07 02:20 35.53827 -115.03813 35987 ft 474 kts 229°
2026-05-07 02:20 35.49403 -115.09824 35994 ft 474 kts 229°
2026-05-07 02:21 35.44891 -115.15730 36011 ft 474 kts 228°
2026-05-07 02:21 35.40340 -115.21605 36006 ft 476 kts 227°
2026-05-07 02:22 35.35792 -115.27509 36015 ft 477 kts 228°
2026-05-07 02:22 35.31283 -115.33389 36002 ft 477 kts 228°
2026-05-07 02:23 35.26733 -115.39314 36015 ft 478 kts 228°
2026-05-07 02:23 35.22174 -115.45241 36013 ft 478 kts 228°
2026-05-07 02:24 35.17613 -115.51143 36007 ft 477 kts 228°
2026-05-07 02:24 35.13062 -115.57021 36007 ft 475 kts 228°
2026-05-07 02:25 35.08492 -115.62890 36009 ft 478 kts 227°
2026-05-07 02:25 35.03909 -115.68713 35988 ft 481 kts 227°
2026-05-07 02:26 34.99267 -115.74626 35984 ft 483 kts 227°
2026-05-07 02:26 34.94624 -115.80542 35976 ft 482 kts 227°
2026-05-07 02:27 34.89992 -115.86444 35967 ft 481 kts 227°
2026-05-07 02:27 34.85370 -115.92327 35958 ft 481 kts 227°
2026-05-07 02:28 34.80739 -115.98207 35956 ft 481 kts 227°
2026-05-07 02:28 34.76095 -116.04082 35954 ft 483 kts 227°
2026-05-07 02:29 34.71446 -116.09986 35951 ft 483 kts 227°
2026-05-07 02:29 34.66812 -116.15885 35955 ft 482 kts 227°
2026-05-07 02:30 34.62185 -116.21770 35952 ft 481 kts 227°
2026-05-07 02:30 34.57577 -116.27616 35593 ft 490 kts 227°
2026-05-07 02:31 34.55209 -116.30617 35105 ft 493 kts 227°
2026-05-07 02:31 34.52843 -116.33614 34511 ft 491 kts 227°
2026-05-07 02:31 34.50453 -116.36642 33817 ft 490 kts 227°
2026-05-07 02:31 34.48128 -116.39588 33031 ft 490 kts 227°
2026-05-07 02:32 34.45772 -116.42571 32281 ft 492 kts 227°
2026-05-07 02:32 34.43393 -116.45572 31553 ft 494 kts 226°
2026-05-07 02:32 34.41209 -116.48778 30897 ft 494 kts 239°
2026-05-07 02:32 34.39532 -116.52397 30350 ft 494 kts 245°
2026-05-07 02:33 34.38025 -116.56143 29658 ft 496 kts 247°
2026-05-07 02:33 34.36558 -116.59912 28913 ft 492 kts 247°
2026-05-07 02:33 34.35116 -116.63600 28221 ft 478 kts 246°
2026-05-07 02:33 34.33705 -116.67141 27949 ft 455 kts 246°
2026-05-07 02:34 34.32350 -116.70510 27476 ft 440 kts 246°
2026-05-07 02:34 34.31011 -116.73842 26744 ft 445 kts 246°
2026-05-07 02:34 34.29633 -116.77276 26027 ft 462 kts 246°
2026-05-07 02:34 34.28217 -116.80793 25308 ft 467 kts 246°
2026-05-07 02:35 34.26784 -116.84329 24603 ft 468 kts 246°
2026-05-07 02:35 34.25354 -116.87863 23885 ft 468 kts 246°
2026-05-07 02:35 34.23931 -116.91387 23108 ft 465 kts 246°
2026-05-07 02:35 34.22511 -116.94903 22337 ft 466 kts 246°
2026-05-07 02:36 34.21127 -116.98373 21602 ft 462 kts 249°
2026-05-07 02:36 34.19975 -117.01986 20948 ft 447 kts 253°
2026-05-07 02:36 34.19042 -117.05453 20283 ft 433 kts 256°
2026-05-07 02:36 34.18158 -117.08877 19622 ft 421 kts 255°
2026-05-07 02:37 34.17307 -117.12210 18981 ft 410 kts 256°
2026-05-07 02:37 34.16485 -117.15458 18361 ft 400 kts 256°
2026-05-07 02:37 34.15658 -117.18627 17646 ft 391 kts 255°
2026-05-07 02:37 34.14828 -117.21711 17028 ft 381 kts 253°
2026-05-07 02:38 34.14005 -117.24714 16456 ft 374 kts 253°
2026-05-07 02:38 34.13183 -117.27687 15894 ft 373 kts 253°
2026-05-07 02:38 34.12359 -117.30649 15342 ft 372 kts 253°
2026-05-07 02:38 34.11527 -117.33620 14799 ft 376 kts 253°
2026-05-07 02:39 34.10691 -117.36596 14414 ft 371 kts 253°
2026-05-07 02:39 34.09902 -117.39514 14157 ft 359 kts 255°
2026-05-07 02:39 34.09177 -117.42345 13789 ft 350 kts 255°
2026-05-07 02:39 34.08477 -117.45153 13139 ft 349 kts 256°
2026-05-07 02:40 34.07786 -117.47952 12533 ft 347 kts 255°
2026-05-07 02:40 34.07071 -117.50716 11980 ft 344 kts 252°
2026-05-07 02:40 34.06189 -117.53388 11456 ft 341 kts 248°
2026-05-07 02:40 34.05224 -117.55979 10957 ft 337 kts 247°
2026-05-07 02:41 34.04248 -117.58535 10487 ft 330 kts 247°
2026-05-07 02:41 34.03320 -117.60980 10280 ft 310 kts 248°
2026-05-07 02:41 34.02463 -117.63282 10167 ft 294 kts 249°
2026-05-07 02:41 34.01641 -117.65538 10132 ft 297 kts 249°
2026-05-07 02:42 34.00833 -117.67819 10105 ft 296 kts 252°
2026-05-07 02:42 34.00364 -117.70215 10090 ft 292 kts 265°
2026-05-07 02:42 34.00140 -117.72642 10081 ft 291 kts 268°
2026-05-07 02:42 33.99953 -117.75071 10080 ft 291 kts 268°
2026-05-07 02:43 33.99756 -117.77509 10077 ft 292 kts 268°
2026-05-07 02:43 33.99552 -117.79929 10078 ft 290 kts 268°
2026-05-07 02:43 33.99342 -117.82366 9907 ft 296 kts 267°
2026-05-07 02:43 33.99119 -117.84836 9456 ft 296 kts 266°
2026-05-07 02:44 33.98881 -117.87302 8955 ft 295 kts 266°
2026-05-07 02:44 33.98642 -117.89728 8438 ft 289 kts 265°
2026-05-07 02:44 33.98410 -117.92068 7955 ft 282 kts 265°
2026-05-07 02:44 33.98170 -117.94392 7474 ft 278 kts 265°
2026-05-07 02:45 33.97955 -117.96672 7167 ft 272 kts 266°
2026-05-07 02:45 33.97783 -117.98657 6917 ft 267 kts 265°
2026-05-07 02:45 33.97588 -118.00830 6643 ft 255 kts 265°
2026-05-07 02:45 33.97374 -118.02900 6341 ft 245 kts 264°
2026-05-07 02:46 33.97177 -118.04901 6032 ft 237 kts 265°
2026-05-07 02:46 33.96974 -118.06865 5749 ft 235 kts 266°
2026-05-07 02:46 33.96771 -118.08787 5450 ft 226 kts 265°
2026-05-07 02:46 33.96581 -118.10633 5153 ft 218 kts 265°
2026-05-07 02:47 33.96396 -118.12415 4861 ft 211 kts 266°
2026-05-07 02:47 33.96222 -118.14146 4561 ft 205 kts 265°
2026-05-07 02:47 33.96053 -118.15802 4264 ft 194 kts 265°
2026-05-07 02:47 33.95891 -118.17396 3973 ft 190 kts 264°
2026-05-07 02:48 33.95725 -118.18948 3684 ft 182 kts 264°
2026-05-07 02:48 33.95575 -118.20432 3391 ft 175 kts 265°
2026-05-07 02:48 33.95432 -118.21877 3097 ft 171 kts 264°
2026-05-07 02:48 33.95279 -118.23288 2802 ft 168 kts 264°
2026-05-07 02:49 33.95132 -118.24638 2564 ft 159 kts 264°
2026-05-07 02:49 33.95005 -118.25953 2263 ft 158 kts 264°
2026-05-07 02:49 33.94870 -118.27263 1959 ft 157 kts 264°
2026-05-07 02:49 33.94743 -118.28515 1694 ft 154 kts 264°
2026-05-07 02:50 33.94623 -118.29691 1490 ft 145 kts 264°
2026-05-07 02:50 33.94498 -118.30871 1291 ft 139 kts 263°
2026-05-07 02:50 33.94388 -118.32011 1103 ft 138 kts 262°
2026-05-07 02:50 33.94255 -118.33151 960 ft 137 kts 261°
2026-05-07 02:51 33.94142 -118.34288 795 ft 137 kts 262°
2026-05-07 02:51 33.94031 -118.35422 621 ft 136 kts 262°
2026-05-07 02:51 33.93909 -118.36573 412 ft 141 kts 265°
2026-05-07 02:51 33.93796 -118.37739 237 ft 137 kts 262°
2026-05-07 02:52 33.93680 -118.38832 102 ft 125 kts 262°
2026-05-07 02:52 33.93588 -118.39730 95 ft 83 kts 263°
2026-05-07 02:52 33.93536 -118.40244 98 ft 54 kts 265°
2026-05-07 02:52 33.93560 -118.40533 96 ft 18 kts 288°
2026-05-07 02:53 33.93584 -118.40607 95 ft 0 kts 290°
2026-05-07 02:54 33.93585 -118.40611 95 ft 2 kts 290°
2026-05-07 02:54 33.93590 -118.40632 95 ft 3 kts 284°
2026-05-07 02:54 33.93596 -118.40671 95 ft 6 kts 277°
2026-05-07 02:54 33.93596 -118.40727 97 ft 8 kts 265°
2026-05-07 02:55 33.93590 -118.40798 94 ft 9 kts 270°
2026-05-07 02:55 33.93618 -118.40867 96 ft 9 kts 315°
2026-05-07 02:55 33.93679 -118.40898 95 ft 11 kts 351°
2026-05-07 02:55 33.93760 -118.40910 96 ft 13 kts 354°
2026-05-07 02:56 33.93849 -118.40919 96 ft 8 kts 10°
2026-05-07 02:56 33.93873 -118.40865 94 ft 9 kts 83°
2026-05-07 02:56 33.93882 -118.40782 94 ft 11 kts 82°
2026-05-07 02:56 33.93889 -118.40718 94 ft 12 kts 83°
2026-05-07 02:57 33.93900 -118.40607 97 ft 14 kts 83°
2026-05-07 02:57 33.93913 -118.40480 96 ft 16 kts 83°
2026-05-07 02:57 33.93927 -118.40337 95 ft 18 kts 83°
2026-05-07 02:57 33.93944 -118.40179 96 ft 20 kts 83°
2026-05-07 02:58 33.93961 -118.40007 96 ft 21 kts 83°
2026-05-07 02:58 33.93972 -118.39897 95 ft 11 kts 83°
2026-05-07 02:58 33.93982 -118.39848 94 ft 4 kts 58°
2026-05-07 02:58 33.94010 -118.39827 94 ft 6 kts 12°